Location: Pedimozza
(42.0500°N, 9.3500°E)
Time: 02:00:48
(UTC+00:00)

FALCON 9 DEB - Pass Details

Date: 19 August 2019
Orbit: 431 x 445 km, 53.0° (Epoch: 23 October)

Event Time Altitude Azimuth Distance (km) Brightness Sun altitude
Rises 19:01:01 0° 303° (WNW) 2,420 9.2 -8.3°
Reaches altitude 10° 19:03:12 10° 297° (WNW) 1,545 7.6 -8.7°
Maximum altitude 19:06:32 46° 223° (SW) 589 3.9 -9.2°
Enters shadow 19:09:48 10° 149° (SSE) 1,510 5.3 -9.8°
